[[{"header":{"parameterUnit":"m.s-1","parameterCategory":1,"la1":30.2991,"la2":30.254,"lo1":-89.0895,"lo2":-89.0444,"dy":0.0017,"dx":0.0017,"nx":28,"ny":28,"refTime":"2025-02-25T03:00:00:Z","depth":0,"parameterNumber":2,"parameterNumberName":"U-component_of_WINDS"},"data":[0,0,0,0,0,0,0,0,0,0,0,0,0,0,0,0,0,0,0,0,0,0,0,0,0,0,0,0,0,0,0,0,0,0,0,0,0,0,0,0,0,0,0,0,0,0,0,0,0,0,0,0,0,0,0,0,0,0,-0.1145,-0.1145,0,-0.1121,-0.1121,-0.1121,-0.1101,-0.1101,-0.11,-0.11,-0.1078,-0.1077,-0.1077,0,0,0,0,0,0,0,0,0,0,0,0,0,-0.1176,-0.1176,-0.1145,-0.1145,-0.1145,-0.1121,-0.1121,-0.1121,-0.1101,-0.1101,-0.11,-0.11,-0.1078,-0.1077,-0.1077,0,0,0,0,0,0,0,0,0,0,0,0,0,-0.1159,-0.1176,-0.1145,-0.1132,-0.1131,-0.1121,-0.1121,-0.112,-0.1101,-0.1101,-0.11,-0.11,-0.1078,-0.1077,-0.1077,-0.1079,0,0,-0.1075,-0.1075,0,0,0,0,0,0,0,0,-0.116,-0.1158,-0.1134,-0.1133,-0.1131,-0.1114,-0.1123,-0.1107,-0.1101,-0.1112,-0.11,-0.11,-0.109,-0.1088,-0.1085,-0.1078,-0.1077,-0.1075,-0.1074,-0.1074,-0.1074,0,0,0,0,0,0,0,-0.1161,-0.1159,-0.1136,-0.1134,-0.1132,-0.1128,-0.1125,-0.112,-0.1103,-0.1111,-0.111,-0.1107,-0.1089,-0.1085,-0.1084,-0.1077,-0.1075,-0.1074,-0.1074,-0.1074,-0.1072,-0.1072,0,0,0,0,0,0,-0.1164,-0.116,-0.1137,-0.1135,-0.1145,-0.1128,-0.1124,-0.112,-0.1103,-0.11,-0.1107,-0.1106,-0.1086,-0.1085,-0.1083,-0.1085,-0.1074,-0.1074,-0.1073,-0.1071,-0.1072,-0.1072,0,0,0,0,0,0,-0.1165,-0.1162,-0.1138,-0.1147,-0.1143,-0.1127,-0.1122,-0.1119,-0.1115,-0.11,-0.1097,-0.1106,-0.1086,-0.1084,-0.108,-0.1084,-0.1073,-0.1073,-0.1071,-0.1072,-0.1072,-0.109,0,0,0,0,0,0,-0.1166,-0.1163,-0.1163,-0.1147,-0.1143,-0.1135,-0.1122,-0.1119,-0.1114,-0.1112,-0.1099,-0.1096,-0.1086,-0.1081,-0.108,-0.1083,-0.1072,-0.1071,-0.1071,-0.1072,-0.1089,-0.1091,-0.1093,0,0,0,0,0,-0.1167,-0.117,-0.1163,-0.116,-0.1143,-0.1135,-0.1133,-0.112,-0.1115,-0.1115,-0.1105,-0.1096,-0.1084,-0.1081,-0.1079,-0.1083,-0.107,-0.1071,-0.1072,-0.1088,-0.1091,-0.1093,0,0,0,0,0,0,-0.1187,-0.1167,-0.116,-0.1157,-0.1148,-0.1132,-0.1132,-0.1123,-0.1116,-0.1115,-0.11,-0.1097,-0.1095,-0.1088,-0.1086,-0.1084,-0.1076,-0.1076,-0.1089,-0.1091,-0.1093,-0.1095,-0.1072,0,0,0,0,0,-0.1191,-0.1186,-0.1169,-0.1168,-0.1164,-0.1149,-0.1145,-0.1136,-0.1126,-0.1122,-0.1112,-0.1103,-0.1097,-0.1094,-0.1087,-0.1087,-0.1085,-0.1089,-0.1091,-0.1092,-0.1093,-0.1093,-0.1095,-0.1074,-0.1074,-0.1074,0,0,-0.12,-0.1188,-0.1186,-0.1172,-0.1164,-0.1159,-0.1146,-0.1141,-0.1138,-0.1121,-0.1117,-0.111,-0.1099,-0.1097,-0.1096,-0.1092,-0.1098,-0.1093,-0.1095,-0.1095,-0.1094,-0.1096,-0.1098,-0.1075,-0.1075,-0.1075,0,0,-0.1214,-0.1204,-0.1202,-0.1194,-0.1181,-0.1171,-0.1171,-0.1156,-0.115,-0.1145,-0.1133,-0.1129,-0.1119,-0.1111,-0.1107,-0.1116,-0.1108,-0.1115,-0.1125,-0.1125,-0.1127,-0.1128,-0.1133,-0.1134,-0.1115,-0.1115,-0.1115,0,-0.1227,-0.1218,-0.1203,-0.1199,-0.1193,-0.1177,-0.1176,-0.1169,-0.1155,-0.1152,-0.1147,-0.1134,-0.1125,-0.1122,-0.1124,-0.112,-0.112,-0.1117,-0.1128,-0.1129,-0.113,-0.1134,-0.1136,-0.1116,-0.1116,-0.1116,-0.1116,0,-0.1235,-0.1229,-0.1229,-0.1215,-0.121,-0.1207,-0.1192,-0.1189,-0.118,-0.117,-0.1166,-0.1155,-0.1147,-0.1145,-0.1136,-0.114,-0.1138,-0.113,-0.1122,-0.1133,-0.1137,-0.1138,-0.1118,-0.1117,-0.1117,-0.1117,0,0,-0.1262,-0.1239,-0.1239,-0.1233,-0.1217,-0.1213,-0.1209,-0.12,-0.1197,-0.1188,-0.1186,-0.1177,-0.117,-0.1164,-0.1155,-0.1155,-0.1164,-0.1147,-0.1146,-0.1151,-0.1168,-0.1175,-0.1177,-0.1158,-0.1158,-0.1158,-0.1169,0,-0.1274,-0.1266,-0.1252,-0.125,-0.1245,-0.1229,-0.1226,-0.1216,-0.1207,-0.1202,-0.1192,-0.1187,-0.1177,-0.1174,-0.1173,-0.1163,-0.1167,-0.1162,-0.1156,-0.1156,-0.116,-0.1178,-0.1185,-0.1197,-0.117,-0.1171,-0.1171,0,-0.1287,-0.1278,-0.1274,-0.1259,-0.1256,-0.1254,-0.1244,-0.1239,-0.1228,-0.1221,-0.1214,-0.1204,-0.12,-0.1191,-0.1186,-0.1183,-0.1179,-0.1174,-0.1174,-0.1174,-0.1165,-0.118,-0.12,-0.1202,-0.1173,-0.1172,-0.1172,0,-0.1308,-0.1295,-0.1291,-0.1286,-0.1267,-0.1266,-0.1258,-0.1247,-0.1242,-0.1233,-0.123,-0.1222,-0.1217,-0.1211,-0.1198,-0.1193,-0.1195,-0.1185,-0.119,-0.1191,-0.1193,-0.1193,-0.1214,-0.1189,-0.1189,-0.1189,-0.1189,0,-0.1324,-0.1323,-0.1301,-0.1299,-0.1297,-0.1281,-0.128,-0.1271,-0.126,-0.1256,-0.1242,-0.1239,-0.1222,-0.1217,-0.1207,-0.1205,-0.1203,-0.1198,-0.1196,-0.12,-0.1201,-0.1199,-0.1198,-0.1189,-0.1189,-0.1189,-0.1189,0,-0.1348,-0.1333,-0.1328,-0.131,-0.1306,-0.1305,-0.1291,-0.1288,-0.1278,-0.1273,-0.1271,-0.1255,-0.1249,-0.1235,-0.1225,-0.1218,-0.1219,-0.1214,-0.1223,-0.1221,-0.1228,-0.1228,-0.1249,-0.1251,-0.1223,-0.1224,-0.1224,0,-0.136,-0.1358,-0.134,-0.1336,-0.1328,-0.1322,-0.1317,-0.1301,-0.1296,-0.1283,-0.1282,-0.1274,-0.1267,-0.1257,-0.1245,-0.1238,-0.1233,-0.1241,-0.1232,-0.1236,-0.1234,-0.1235,-0.1235,-0.1243,-0.1244,-0.1244,-0.1244,0,-0.1382,-0.1374,-0.1367,-0.1357,-0.135,-0.1342,-0.1333,-0.133,-0.1312,-0.1307,-0.13,-0.1294,-0.1284,-0.1276,-0.1266,-0.1259,-0.1249,-0.1247,-0.1248,-0.1253,-0.1259,-0.1257,-0.1229,-0.1247,-0.1247,-0.1246,-0.1246,-0.1246,-0.1401,-0.1399,-0.1386,-0.1378,-0.1369,-0.136,-0.1357,-0.1346,-0.1339,-0.1329,-0.1319,-0.1313,-0.1301,-0.1287,-0.128,-0.1275,-0.127,-0.1272,-0.1272,-0.1273,-0.1275,-0.1258,-0.1273,-0.1273,-0.1273,-0.1273,-0.1273,0,-0.1424,-0.1414,-0.1407,-0.1394,-0.1388,-0.1377,-0.1366,-0.1362,-0.1356,-0.1346,-0.1339,-0.133,-0.1323,-0.1309,-0.1301,-0.13,-0.1295,-0.1298,-0.1299,-0.1297,-0.128,-0.128,-0.1302,-0.1302,-0.1302,-0.1302,-0.1302,-0.1302,-0.1435,-0.1431,-0.1422,-0.1414,-0.1404,-0.1397,-0.1392,-0.1384,-0.1376,-0.1367,-0.136,-0.1351,-0.134,-0.133,-0.1323,-0.1319,-0.1317,-0.1322,-0.1317,-0.1301,-0.1299,-0.1296,-0.1297,-0.1322,-0.1322,-0.1335,-0.1336,-0.1336]},{"header":{"parameterUnit":"m.s-1","parameterCategory":1,"la1":30.2991,"la2":30.254,"lo1":-89.0895,"lo2":-89.0444,"dy":0.0017,"dx":0.0017,"nx":28,"ny":28,"refTime":"2025-02-25T03:00:00:Z","depth":0,"parameterNumber":3,"parameterNumberName":"V-component_of_WINDS"},"data":[0,0,0,0,0,0,0,0,0,0,0,0,0,0,0,0,0,0,0,0,0,0,0,0,0,0,0,0,0,0,0,0,0,0,0,0,0,0,0,0,0,0,0,0,0,0,0,0,0,0,0,0,0,0,0,0,0,0,-0.7989,-0.799,0,-0.8093,-0.8094,-0.8095,-0.8135,-0.8135,-0.8134,-0.8134,-0.8239,-0.8242,-0.8245,0,0,0,0,0,0,0,0,0,0,0,0,0,-0.7827,-0.783,-0.7989,-0.7991,-0.7992,-0.8093,-0.8094,-0.8095,-0.8135,-0.8135,-0.8134,-0.8134,-0.8238,-0.8241,-0.8245,0,0,0,0,0,0,0,0,0,0,0,0,0,-0.791,-0.7831,-0.7989,-0.8024,-0.8028,-0.8092,-0.8094,-0.8096,-0.8135,-0.8135,-0.8134,-0.8134,-0.8237,-0.8241,-0.8246,-0.8283,0,0,-0.826,-0.8262,0,0,0,0,0,0,0,0,-0.7906,-0.7916,-0.8017,-0.8021,-0.8026,-0.8101,-0.8075,-0.8158,-0.8135,-0.8094,-0.8134,-0.8134,-0.8193,-0.8201,-0.8221,-0.8287,-0.8292,-0.826,-0.8263,-0.8265,-0.8266,0,0,0,0,0,0,0,-0.79,-0.7912,-0.803,-0.8019,-0.8024,-0.8035,-0.8046,-0.8091,-0.8145,-0.8098,-0.8101,-0.8113,-0.8195,-0.8217,-0.8224,-0.8294,-0.826,-0.8264,-0.8267,-0.8269,-0.8398,-0.8398,0,0,0,0,0,0,-0.7888,-0.7907,-0.8027,-0.8033,-0.7964,-0.8038,-0.8051,-0.8077,-0.8144,-0.8154,-0.8113,-0.8114,-0.8209,-0.8219,-0.8228,-0.8278,-0.8265,-0.8269,-0.8272,-0.8397,-0.8398,-0.8399,0,0,0,0,0,0,-0.7885,-0.7899,-0.8023,-0.7971,-0.7988,-0.8041,-0.8071,-0.8079,-0.8101,-0.8156,-0.8166,-0.8125,-0.8209,-0.8222,-0.8269,-0.8282,-0.8271,-0.8275,-0.8396,-0.8397,-0.8398,-0.8376,0,0,0,0,0,0,-0.788,-0.7897,-0.7911,-0.7971,-0.799,-0.8062,-0.8071,-0.8082,-0.8109,-0.8112,-0.817,-0.8179,-0.821,-0.8262,-0.8274,-0.8288,-0.8279,-0.8395,-0.8397,-0.8398,-0.8375,-0.8376,-0.8376,0,0,0,0,0,-0.7874,-0.79,-0.7912,-0.7926,-0.8009,-0.8063,-0.8074,-0.8109,-0.811,-0.8125,-0.8161,-0.8177,-0.8278,-0.8267,-0.828,-0.8296,-0.8395,-0.8396,-0.8398,-0.8375,-0.8376,-0.8376,0,0,0,0,0,0,-0.7839,-0.7908,-0.7922,-0.7968,-0.801,-0.8069,-0.8089,-0.8108,-0.8149,-0.8149,-0.8191,-0.8204,-0.8249,-0.8277,-0.8263,-0.8336,-0.8338,-0.8342,-0.8316,-0.8317,-0.8317,-0.831,-0.8283,0,0,0,0,0,-0.7837,-0.7875,-0.7933,-0.7968,-0.7988,-0.8035,-0.806,-0.8084,-0.8128,-0.8145,-0.8184,-0.8226,-0.8268,-0.8294,-0.8335,-0.838,-0.8394,-0.8397,-0.8397,-0.8397,-0.8401,-0.8429,-0.8431,-0.8404,-0.8404,-0.8404,0,0,-0.7833,-0.7875,-0.7896,-0.7962,-0.7997,-0.8036,-0.8049,-0.8089,-0.8118,-0.8151,-0.8199,-0.8229,-0.8279,-0.8326,-0.8349,-0.8351,-0.8412,-0.8399,-0.8399,-0.8402,-0.843,-0.8433,-0.8435,-0.8405,-0.8404,-0.8404,0,0,-0.7845,-0.788,-0.7914,-0.7949,-0.8002,-0.8034,-0.8042,-0.8099,-0.8121,-0.817,-0.8196,-0.8232,-0.8302,-0.8337,-0.8363,-0.8392,-0.8409,-0.8404,-0.8405,-0.8431,-0.8434,-0.8436,-0.8447,-0.845,-0.8407,-0.8407,-0.8407,0,-0.7833,-0.7892,-0.7929,-0.7969,-0.7998,-0.803,-0.8066,-0.8098,-0.8161,-0.818,-0.8182,-0.8272,-0.8308,-0.8365,-0.8372,-0.8392,-0.8404,-0.8397,-0.843,-0.8433,-0.8435,-0.8447,-0.8451,-0.8406,-0.8406,-0.8406,-0.8406,0,-0.7875,-0.7916,-0.7937,-0.7998,-0.803,-0.8067,-0.8111,-0.8138,-0.816,-0.8192,-0.8242,-0.8286,-0.8338,-0.8353,-0.8374,-0.8414,-0.8414,-0.8422,-0.8425,-0.8437,-0.8448,-0.8452,-0.8404,-0.8405,-0.8405,-0.8405,0,0,-0.7866,-0.795,-0.7957,-0.7987,-0.8048,-0.8081,-0.812,-0.8171,-0.8195,-0.8237,-0.8272,-0.8332,-0.8341,-0.8372,-0.8397,-0.842,-0.8442,-0.8427,-0.8429,-0.8429,-0.849,-0.8484,-0.8488,-0.8454,-0.8455,-0.8456,-0.8486,0,-0.7887,-0.7959,-0.7995,-0.8052,-0.8091,-0.8123,-0.8158,-0.82,-0.8231,-0.8269,-0.8303,-0.8345,-0.8353,-0.8372,-0.8397,-0.8434,-0.8455,-0.8432,-0.8487,-0.8489,-0.8474,-0.8494,-0.8486,-0.8513,-0.8491,-0.8492,-0.8492,0,-0.7921,-0.7965,-0.8025,-0.8085,-0.8102,-0.8133,-0.8184,-0.8219,-0.8268,-0.8289,-0.8325,-0.835,-0.8394,-0.8393,-0.8454,-0.8438,-0.8463,-0.8484,-0.8486,-0.8493,-0.8491,-0.8502,-0.8522,-0.8526,-0.8499,-0.8499,-0.8498,0,-0.791,-0.7984,-0.8031,-0.8055,-0.8125,-0.8146,-0.8176,-0.8224,-0.8253,-0.8298,-0.8318,-0.8367,-0.8393,-0.8431,-0.8469,-0.8465,-0.8527,-0.8529,-0.8546,-0.8546,-0.8558,-0.8557,-0.8584,-0.8573,-0.8573,-0.8573,-0.8572,0,-0.793,-0.7966,-0.8027,-0.8056,-0.8098,-0.814,-0.818,-0.8213,-0.8256,-0.8292,-0.8323,-0.8356,-0.8404,-0.8444,-0.8474,-0.8521,-0.8532,-0.8551,-0.8559,-0.8549,-0.8547,-0.8566,-0.8565,-0.8574,-0.8573,-0.8573,-0.8573,0,-0.7924,-0.7967,-0.802,-0.8083,-0.81,-0.8128,-0.8182,-0.8211,-0.8244,-0.829,-0.8303,-0.8355,-0.8403,-0.8446,-0.8509,-0.8529,-0.8578,-0.8587,-0.8561,-0.8566,-0.8581,-0.8579,-0.8622,-0.863,-0.8612,-0.8612,-0.8612,0,-0.7934,-0.7963,-0.8029,-0.8056,-0.8086,-0.8129,-0.8159,-0.8203,-0.8233,-0.8293,-0.8315,-0.8366,-0.8409,-0.8485,-0.8528,-0.8577,-0.8588,-0.86,-0.8596,-0.8585,-0.859,-0.8588,-0.8592,-0.86,-0.86,-0.86,-0.86,0,-0.7948,-0.7968,-0.8011,-0.8063,-0.8099,-0.8141,-0.8184,-0.8204,-0.8256,-0.8289,-0.8339,-0.8372,-0.8438,-0.8489,-0.8543,-0.8575,-0.8596,-0.8601,-0.8608,-0.8598,-0.8582,-0.8592,-0.8562,-0.8599,-0.8599,-0.8599,-0.8599,-0.8599,-0.7951,-0.7979,-0.8031,-0.8079,-0.8116,-0.8156,-0.8188,-0.8226,-0.8269,-0.8326,-0.8349,-0.8401,-0.8451,-0.8527,-0.8559,-0.86,-0.8603,-0.8613,-0.8615,-0.8617,-0.8616,-0.8576,-0.861,-0.861,-0.861,-0.861,-0.861,0,-0.7967,-0.8003,-0.8046,-0.8107,-0.8145,-0.8162,-0.8212,-0.8242,-0.8288,-0.8333,-0.8376,-0.8434,-0.8484,-0.8533,-0.8585,-0.8609,-0.862,-0.8621,-0.862,-0.8628,-0.8609,-0.8599,-0.8612,-0.8612,-0.8612,-0.8612,-0.8612,-0.8612,-0.798,-0.8029,-0.8056,-0.8124,-0.8159,-0.8211,-0.8238,-0.8276,-0.8312,-0.8377,-0.8419,-0.8451,-0.8498,-0.8555,-0.8601,-0.8614,-0.8633,-0.8631,-0.8647,-0.8629,-0.8628,-0.8628,-0.8618,-0.8635,-0.8635,-0.8662,-0.8662,-0.8662]}]]